Wetbulb
58.79 59.84 60.52 60.79 59.16 57.67 56.59 55.87 55.63 55.40 55.27 54.92 54.97 55.24 55.24 54.47 53.70 53.79 54.25 54.70 53.79 53.16 52.89 52.97 53.07 53.29 53.56 53.83 53.60 53.33 53.06 53.02 53.11 53.42 53.69 53.92 54.33 54.60 54.92 55.28 55.77 56.45 57.31 58.26 59.16 59.66 60.12 60.38 60.38 60.25 60.11 60.04 59.81 59.63 59.57 59.75 59.65 59.31 58.87 58.69 58.37 58.06 57.81 57.48 57.32 57.17 57.01 56.94 57.15
54.77 55.22 55.58 55.49 55.17 54.77 54.36 53.92 53.60 53.28 52.92 52.43 52.25 52.02 51.71 51.62 51.08 50.81 50.76 50.81 51.08 51.21 51.26 51.17 51.17 51.26 51.39 51.62 51.61 51.48 51.16 50.98 50.94 50.89 51.03 51.16 51.61 51.98 52.20 52.34 52.75 53.33 54.14 55.22 56.67 57.85 58.89 59.83 60.01 59.75 59.44 59.43 59.30 58.99 58.77 58.77 58.58 58.26 57.89 57.77 57.78 57.66 57.56 57.29 57.16 57.06 57.05 56.81 56.81
52.65 52.87 53.18 53.28 53.28 53.05 52.65 52.25 51.98 51.66 51.48 51.39 51.21 50.99 50.71 50.58 50.26 49.99 49.86 49.81 50.08 50.17 50.13 49.90 49.90 49.95 49.99 50.04 50.08 50.04 49.81 49.58 49.45 49.22 49.13 49.22 49.54 49.94 50.26 50.53 50.66 50.93 51.46 52.23 53.32 54.63 56.18 57.81 58.44 58.39 58.17 58.21 58.20 57.99 57.59 57.24 57.51 57.49 57.27 56.98 57.02 56.91 56.68 56.46 56.52 56.64 56.65 56.64 56.59
50.52 50.53 50.57 50.62 50.75 50.80 50.80 50.71 50.49 50.26 50.13 49.95 49.81 49.63 49.40 49.27 49.00 48.86 48.64 48.59 48.59 48.64 48.59 48.59 48.64 48.64 48.73 48.64 48.59 48.64 48.73 48.77 48.50 48.32 48.14 48.14 48.45 48.68 48.99 49.26 49.30 49.34 49.55 50.13 51.16 52.57 54.12 55.82 56.37 56.45 56.39 56.42 55.78 55.11 54.81 55.27 55.90 56.43 56.65 56.73 56.73 56.44 55.87 55.45 55.53 55.66 55.74 55.63 55.86
48.63 48.59 48.55 48.46 48.54 48.68 48.82 49.04 48.91 48.91 48.86 48.73 48.50 48.28 48.10 48.01 47.78 47.60 47.33 47.10 46.92 47.06 47.28 47.56 47.65 47.69 47.65 47.56 47.33 47.28 47.42 47.64 47.73 47.51 47.33 47.46 47.91 48.04 48.04 47.94 47.71 47.76 48.06 48.40 49.47 50.82 52.27 53.54 53.58 53.54 53.64 53.83 52.70 51.66 51.34 52.37 53.81 54.81 55.36 56.00 56.08 55.98 55.60 55.27 55.24 55.29 55.38 55.45 55.65
47.06 47.10 47.10 47.10 47.10 46.97 47.01 47.01 47.15 47.19 47.19 47.06 46.74 46.43 46.29 46.38 46.29 46.02 45.79 45.48 45.66 46.02 46.34 46.61 46.74 46.79 46.74 46.52 46.29 46.16 46.07 46.07 46.25 46.30 46.30 46.39 46.57 46.48 46.30 45.99 46.12 46.33 46.68 47.03 47.64 48.46 49.25 50.05 50.07 50.22 50.45 50.72 49.47 48.78 48.84 49.82 51.17 52.03 52.80 53.35 53.85 54.16 54.34 54.39 54.67 54.99 55.18 55.08 55.15
45.76 45.71 45.62 45.76 45.85 45.76 45.57 45.57 45.53 45.53 45.44 45.21 44.85 44.63 44.58 44.76 44.76 44.76 44.72 44.85 44.98 45.17 45.30 45.44 45.39 45.57 45.62 45.44 45.21 45.08 44.95 44.95 45.00 45.05 45.19 45.32 45.25 44.95 44.78 44.91 45.04 45.30 45.64 45.90 46.34 46.72 47.11 47.45 47.42 47.43 47.52 47.78 47.43 47.11 47.33 48.25 49.19 49.78 50.10 50.29 50.95 51.32 51.55 51.91 52.23 52.54 52.71 52.62 52.76
44.73 44.55 44.50 44.41 44.46 44.37 44.33 44.41 44.40 44.27 44.09 43.90 43.68 43.69 43.69 43.92 44.06 44.15 44.28 44.18 44.22 44.23 44.23 44.27 44.15 44.24 44.37 44.24 44.07 43.98 43.94 43.81 43.90 44.04 44.09 44.15 43.65 43.50 43.54 43.63 43.67 43.88 44.09 44.48 45.08 45.52 45.86 46.21 45.86 45.86 45.95 46.12 45.95 45.99 46.30 46.58 47.53 47.83 47.92 48.29 48.58 48.94 49.30 49.72 49.90 50.02 50.09 50.28 50.60
43.65 43.70 43.74 43.62 43.48 43.44 43.31 43.26 43.34 43.25 43.15 43.01 43.07 43.16 43.26 43.40 43.42 43.46 43.36 43.20 43.34 43.48 43.48 43.35 43.37 43.46 43.43 43.21 43.04 42.91 42.83 42.58 42.71 42.68 42.50 42.27 42.10 42.05 42.08 42.20 42.24 42.40 42.73 43.17 43.73 44.08 44.47 44.82 44.64 44.68 44.69 44.73 44.73 44.78 45.00 45.65 46.13 46.35 46.48 46.83 46.92 47.05 47.31 47.66 48.11 48.33 48.46 48.77 49.18
42.81 42.86 42.91 42.86 42.91 42.83 42.66 42.52 42.52 42.43 42.20 42.01 42.15 42.43 42.62 42.90 42.63 42.53 42.47 42.56 42.49 42.53 42.52 42.48 42.51 42.39 42.23 42.01 41.89 41.80 41.76 41.56 41.41 41.26 41.15 41.12 40.94 40.80 40.70 40.90 41.05 41.25 41.62 42.14 42.75 43.15 43.41 43.46 43.28 43.20 43.29 43.50 43.50 43.59 43.89 44.65 44.83 45.00 45.23 45.42 45.64 45.86 46.00 46.08 46.56 46.87 47.00 47.18 47.67
42.03 42.04 42.09 42.09 42.10 41.99 41.82 41.62 41.45 41.41 41.14 40.81 40.96 41.06 41.25 41.56 41.56 41.64 41.78 41.79 41.50 41.31 41.31 41.51 41.46 41.26 41.09 40.92 40.83 40.75 40.72 40.69 40.54 40.38 40.17 40.10 40.05 39.99 40.03 40.16 40.28 40.40 40.73 41.15 41.87 42.27 42.40 42.35 42.23 42.06 42.06 42.55 42.75 42.75 42.91 43.31 43.56 43.68 43.78 44.05 44.61 44.79 44.72 44.73 45.17 45.43 45.60 45.82 46.04
40.87 40.80 40.90 40.94 40.81 40.81 40.71 40.42 40.34 40.21 40.12 39.94 39.93 39.98 40.12 40.16 40.39 40.70 40.92 40.71 40.40 40.30 40.36 40.60 40.53 40.32 40.10 40.01 40.10 40.07 40.07 39.91 39.87 39.70 39.52 39.33 39.36 39.44 39.56 39.68 39.86 39.99 40.11 40.35 40.93 41.31 41.49 41.23 41.19 41.19 41.31 41.68 42.22 42.18 42.03 41.98 42.25 42.22 42.27 42.83 43.41 43.70 43.76 43.68 43.99 44.22 44.44 44.65 44.76
39.44 39.45 39.45 39.58 39.65 39.64 39.56 39.28 39.23 39.09 39.08 39.03 39.11 39.12 39.17 39.29 39.75 39.88 39.84 39.61 39.64 39.62 39.71 39.89 39.72 39.50 39.28 39.19 39.25 39.30 39.26 39.10 39.06 38.97 38.75 38.64 38.73 38.90 39.11 39.19 39.41 39.53 39.73 39.81 40.12 40.41 40.49 40.32 40.14 40.13 40.30 40.75 41.25 41.34 41.10 40.85 40.96 41.11 41.24 41.48 42.54 42.94 43.10 43.43 43.53 43.67 43.85 43.89 43.91
38.22 38.27 38.35 38.49 38.49 38.48 38.41 38.21 38.05 38.02 37.95 37.98 38.20 38.33 38.51 38.66 39.06 39.19 39.01 38.74 38.72 38.80 38.93 38.98 39.01 38.84 38.66 38.41 38.43 38.35 38.32 38.21 38.22 38.13 38.08 38.02 38.14 38.32 38.40 38.53 38.68 38.85 39.02 39.26 39.27 39.21 39.22 39.39 39.38 39.32 39.49 39.79 40.24 40.32 40.22 40.16 40.14 40.33 40.46 40.80 41.14 41.71 42.17 42.37 42.67 42.95 43.11 43.02 42.97
37.16 37.22 37.40 37.58 37.53 37.47 37.36 37.20 37.09 37.13 37.10 37.17 37.43 37.74 37.88 37.97 38.31 38.32 38.14 37.83 37.82 37.95 38.00 37.95 38.07 38.11 38.11 37.94 37.69 37.58 37.56 37.58 37.45 37.37 37.28 37.30 37.31 37.35 37.47 37.64 37.65 37.77 37.90 38.07 38.23 38.25 38.22 38.24 38.41 38.51 38.67 39.03 39.35 39.48 39.46 39.64 39.59 39.64 39.89 40.29 40.17 40.57 41.14 41.64 42.02 42.27 42.31 42.13 41.99
36.16 36.29 36.43 36.56 36.47 36.41 36.34 36.28 36.38 36.26 36.27 36.28 36.55 36.86 37.13 37.21 37.43 37.52 37.39 37.01 37.06 37.06 36.97 36.86 36.96 37.14 37.35 37.44 37.22 36.98 36.86 36.69 36.63 36.54 36.40 36.24 36.33 36.41 36.50 36.61 36.50 36.56 36.60 36.78 37.14 37.36 37.52 37.49 37.58 37.67 37.77 38.35 38.89 39.19 39.22 39.28 39.56 39.70 39.86 40.13 40.07 40.34 40.86 41.32 41.77 41.97 41.95 41.70 41.35
35.31 35.36 35.45 35.53 35.38 35.28 35.26 35.32 35.35 35.29 35.30 35.36 35.57 35.84 36.15 36.32 36.58 36.79 36.83 36.53 36.30 36.11 35.91 35.83 36.03 36.04 36.21 36.46 36.54 36.39 36.17 35.85 35.74 35.65 35.49 35.37 35.40 35.45 35.62 35.60 35.62 35.47 35.37 35.55 35.93 36.26 36.58 36.94 37.07 37.17 37.43 37.89 38.46 38.80 39.05 39.07 39.32 39.62 39.88 39.88 40.06 40.27 40.50 40.91 41.28 41.52 41.58 41.47 41.14
34.41 34.54 34.67 34.58 34.42 34.39 34.30 34.27 34.34 34.29 34.31 34.42 34.64 34.85 35.08 35.37 35.54 35.70 35.86 35.86 35.57 35.22 34.99 34.99 35.10 35.06 35.00 34.98 35.43 35.72 35.72 35.11 34.90 34.81 34.61 34.45 34.49 34.57 34.70 34.64 34.78 34.60 34.45 34.54 34.93 35.26 35.68 36.06 36.32 36.64 36.95 37.16 37.45 37.88 38.36 38.60 38.62 38.97 39.41 39.74 39.92 40.10 40.29 40.57 40.70 40.93 41.12 41.12 41.14
33.56 33.61 33.69 33.63 33.67 33.71 33.73 33.67 33.55 33.46 33.50 33.63 33.76 33.88 34.04 34.24 34.46 34.59 34.58 34.64 34.64 34.42 34.25 34.23 34.23 34.10 34.03 33.95 34.35 34.85 35.11 34.51 34.08 33.82 33.71 33.40 33.53 33.63 33.84 33.93 34.13 34.05 33.91 33.90 34.18 34.43 34.84 35.27 35.52 35.80 36.08 36.52 36.71 37.01 37.39 37.77 38.12 38.60 39.13 39.40 39.62 39.81 39.90 40.05 40.14 40.37 40.46 40.50 40.64
32.71 32.75 32.66 32.75 32.80 32.84 32.88 32.90 32.85 32.76 32.80 32.93 32.87 32.90 33.01 33.18 33.40 33.47 33.39 33.36 33.49 33.49 33.40 33.39 33.36 33.19 33.22 33.12 33.32 33.58 33.83 34.02 33.28 32.99 32.90 32.63 32.80 32.98 33.20 33.38 33.54 33.64 33.58 33.58 33.83 34.08 34.43 34.84 35.05 35.33 35.60 36.01 36.39 36.89 37.35 37.70 38.09 38.26 38.48 38.76 38.98 39.16 39.31 39.34 39.44 39.49 39.58 39.70 39.83
31.89 31.93 32.04 32.16 32.10 32.00 32.00 32.06 32.16 32.16 32.15 32.14 32.04 32.05 32.05 32.13 32.19 32.11 32.17 32.38 32.42 32.46 32.45 32.41 32.34 32.31 32.23 32.27 32.31 32.34 32.65 33.26 32.44 32.19 32.28 32.29 32.52 32.69 32.86 33.09 33.05 33.04 33.17 33.34 33.56 33.71 34.12 34.65 35.12 35.37 35.65 35.84 36.36 36.82 37.36 37.59 37.79 37.73 37.69 37.95 38.21 38.34 38.35 38.26 38.40 38.41 38.47 38.64 38.77
31.14 31.20 31.39 31.53 31.58 31.46 31.38 31.30 31.36 31.45 31.39 31.30 31.23 31.18 31.20 31.14 30.98 30.83 30.95 31.33 31.63 31.65 31.54 31.58 31.41 31.29 31.23 31.20 31.30 31.32 31.51 32.03 31.51 31.51 31.77 31.83 32.06 32.28 32.45 32.54 32.21 32.23 32.44 32.82 33.16 33.53 33.88 34.53 35.08 35.42 35.56 35.87 36.22 36.55 36.83 37.02 37.27 37.39 37.42 37.52 37.60 37.60 37.56 37.50 37.64 37.85 38.01 38.32 38.41
30.49 30.55 30.65 30.79 30.97 31.19 31.19 30.77 30.68 30.56 30.54 30.35 30.32 30.31 30.27 30.26 30.16 30.02 30.05 30.42 30.87 30.79 30.67 30.89 30.77 30.48 30.27 30.13 30.11 30.26 30.55 30.76 30.76 30.94 31.03 30.99 31.16 31.33 31.49 31.48 31.67 31.95 32.36 33.03 33.85 34.66 35.30 35.98 36.26 36.16 36.12 36.19 36.54 36.87 36.97 36.71 37.06 37.19 37.36 37.38 37.46 37.49 37.58 37.79 37.86 37.84 37.84 37.86 37.82
29.86 29.98 30.07 29.99 29.79 29.87 30.09 30.11 30.04 29.89 29.68 29.46 29.41 29.45 29.54 29.51 29.75 29.84 29.88 29.85 29.70 29.78 29.97 30.42 30.46 30.25 29.88 29.43 29.44 29.68 30.11 30.42 30.52 30.54 30.63 30.66 30.88 30.99 31.21 31.56 32.10 32.36 32.86 33.68 35.41 36.75 37.71 38.26 38.13 37.89 37.64 37.44 37.40 37.32 37.13 36.75 36.95 36.95 36.94 36.82 37.02 37.16 37.31 37.55 37.56 37.39 37.20 37.10 36.96
29.11 29.27 29.24 28.99 29.00 29.15 29.31 29.51 29.38 29.18 28.92 28.80 28.80 28.94 29.05 29.18 29.51 29.87 30.15 30.17 29.79 29.71 29.91 30.20 30.59 30.77 30.62 29.89 29.89 29.99 30.26 30.51 30.36 30.38 30.42 30.72 30.94 31.23 31.63 32.06 32.31 32.49 33.05 34.40 36.49 37.95 38.79 39.24 39.15 38.90 38.62 38.39 37.85 37.46 37.03 36.72 36.54 36.37 36.26 36.18 36.38 36.35 36.26 36.31 36.21 36.06 35.99 36.36 36.39
28.50 28.47 28.32 28.19 28.22 28.37 28.50 28.57 28.44 28.44 28.48 28.48 28.50 28.63 28.72 28.88 29.25 29.61 29.84 30.09 29.89 29.87 29.98 30.28 30.97 31.56 31.46 30.14 30.15 30.28 30.39 30.51 30.33 30.15 30.11 30.44 30.75 31.05 31.32 31.55 31.73 32.06 32.88 34.71 36.57 37.82 38.73 39.29 39.37 39.31 38.98 38.57 37.86 37.20 36.75 36.44 36.22 36.04 35.87 35.72 35.70 35.40 35.23 35.16 35.22 35.34 35.45 35.64 35.73
28.13 27.95 27.80 27.82 27.92 27.80 27.75 27.70 27.87 27.95 28.04 28.11 28.03 28.10 28.14 28.27 28.77 29.08 29.32 29.40 29.42 29.54 29.67 29.85 30.18 30.80 30.99 29.97 29.73 29.69 29.68 29.90 29.83 29.77 29.64 29.64 29.90 30.15 30.51 30.93 31.08 31.61 32.77 34.88 36.49 37.63 38.46 38.99 39.10 39.19 39.07 38.56 37.71 36.96 36.42 36.25 36.03 35.74 35.45 35.19 35.03 34.78 34.53 34.42 34.57 34.75 34.93 35.16 35.25
27.35 27.35 27.25 27.44 27.55 27.37 27.20 27.30 27.40 27.28 27.19 27.16 27.22 27.46 27.70 27.82 28.11 28.37 28.68 28.94 29.15 29.46 29.78 29.75 29.74 29.86 29.96 30.07 29.58 29.12 29.04 29.14 29.33 29.42 29.45 29.34 29.48 29.70 29.96 30.44 30.53 31.31 32.69 34.80 36.27 37.32 38.03 38.49 38.67 38.85 38.94 38.73 38.04 37.42 36.69 36.13 35.75 35.39 35.17 34.95 34.75 34.67 34.62 34.52 34.50 34.51 34.50 34.54 34.78
26.30 26.67 27.02 27.39 27.26 27.14 26.99 26.91 26.68 26.45 26.28 26.38 26.52 26.98 27.56 27.82 28.09 28.24 28.36 28.64 29.08 29.48 29.58 29.41 29.68 29.62 29.51 29.38 29.05 28.75 28.66 28.83 28.87 29.07 29.18 28.77 29.20 29.50 29.86 30.15 30.05 30.88 32.51 34.76 36.08 37.06 37.69 38.07 38.26 38.48 38.69 38.73 38.36 37.75 36.97 36.07 35.70 35.37 35.07 34.95 34.88 34.87 34.85 34.82 34.63 34.46 34.35 34.32 34.46
25.21 26.04 26.83 27.05 26.97 26.82 26.60 26.08 25.68 25.59 25.71 26.41 26.66 27.16 27.69 28.16 28.25 28.30 28.26 28.19 28.50 29.02 29.17 28.29 28.37 28.48 28.60 28.24 28.11 28.19 28.40 28.56 28.46 28.50 28.51 28.29 28.96 29.25 29.42 29.68 29.35 30.21 31.95 34.62 35.90 36.81 37.39 37.84 38.04 38.14 38.31 38.52 38.11 37.64 37.00 36.27 35.68 35.37 35.19 34.97 34.93 34.85 34.73 34.57 34.40 34.28 34.06 34.06 34.06
24.43 25.47 26.53 27.16 26.95 26.48 25.86 25.25 25.01 25.12 25.60 26.56 27.01 27.55 27.93 28.07 27.93 27.66 27.38 27.22 27.75 28.56 28.76 27.46 27.36 27.48 27.61 27.44 27.45 27.60 27.77 27.99 27.99 28.12 28.31 28.22 28.74 28.85 28.83 28.95 28.65 29.81 31.90 34.64 35.79 36.60 37.26 37.69 37.73 37.83 37.97 38.14 37.76 37.27 36.77 36.22 35.72 35.31 35.04 34.78 34.68 34.63 34.47 34.38 34.11 33.94 33.93 33.94 33.74
24.07 25.08 26.12 27.16 26.89 26.28 25.57 24.89 24.83 25.17 25.60 26.31 26.66 26.93 27.06 26.99 26.84 26.55 26.38 26.57 27.00 27.26 27.19 27.06 27.30 27.26 27.19 26.96 27.07 27.13 27.21 27.61 27.95 28.35 28.68 28.84 28.12 27.84 27.91 28.65 28.56 29.82 31.95 34.53 35.61 36.37 36.87 37.27 37.42 37.52 37.63 37.80 37.28 36.82 36.27 35.82 35.37 34.99 34.69 34.44 34.31 34.24 34.08 33.91 33.69 33.80 33.88 33.70 33.68
23.76 24.62 25.58 26.25 26.20 25.73 25.09 24.55 24.41 24.66 25.21 25.95 26.03 26.08 25.90 25.87 25.77 25.68 25.77 26.42 26.76 26.69 26.59 26.87 26.95 26.95 27.01 27.04 27.09 27.07 27.35 28.15 28.30 28.40 28.44 28.35 27.76 27.55 27.88 28.69 28.73 30.20 32.40 34.36 35.29 35.97 36.43 36.75 36.95 37.10 37.32 37.48 37.05 36.53 36.00 35.42 35.02 34.74 34.51 34.33 34.33 34.40 34.47 34.38 34.08 34.08 34.04 33.98 33.90
22.71 23.90 25.10 25.50 25.46 24.98 24.33 23.86 23.55 23.75 24.28 25.18 25.33 25.29 25.20 25.18 25.43 25.71 26.38 27.46 27.33 26.81 26.30 26.34 26.29 26.40 26.53 26.48 26.56 26.69 27.24 28.40 28.13 27.61 27.27 27.17 27.13 27.35 27.84 28.32 28.67 30.35 32.42 34.02 34.88 35.49 35.90 36.24 36.52 36.71 36.91 37.03 36.66 36.09 35.39 34.93 34.69 34.42 34.16 33.99 34.08 34.38 34.56 34.40 34.30 34.32 34.29 34.13 33.97
21.40 22.56 23.96 24.52 24.15 23.86 23.47 23.10 22.88 23.14 23.75 24.57 24.91 25.02 25.01 25.09 25.50 25.96 26.76 28.25 28.08 26.89 25.59 25.21 25.12 25.20 25.37 25.53 25.71 26.39 27.09 27.55 27.17 26.95 26.88 27.04 27.18 27.30 27.59 27.89 28.26 30.05 32.13 33.55 34.34 34.90 35.42 35.79 36.04 36.37 36.49 36.46 36.07 35.47 34.88 34.42 34.15 33.96 33.80 33.75 33.89 34.00 34.08 34.12 34.12 34.08 34.00 33.97 33.93
20.41 20.96 22.05 23.12 23.14 22.94 22.65 22.41 22.40 22.87 23.65 24.37 24.95 25.20 25.26 25.18 25.47 25.76 26.62 28.40 27.61 26.47 25.42 24.97 24.59 24.73 25.13 25.55 25.60 26.50 27.22 26.73 26.53 26.53 26.77 27.36 27.32 27.22 27.13 27.34 27.59 29.26 31.32 32.96 33.76 34.38 34.93 35.40 35.74 36.03 36.06 35.77 35.15 34.71 34.31 33.94 33.72 33.61 33.58 33.70 33.89 33.96 33.87 33.87 33.95 33.92 33.78 33.72 33.92
19.95 19.79 20.39 21.31 22.06 22.25 22.01 21.62 21.93 22.86 23.77 24.40 25.01 25.22 25.18 25.10 25.27 25.34 25.99 27.99 26.73 26.16 25.87 25.60 25.60 25.75 25.98 26.25 26.20 26.43 26.56 25.98 25.82 26.09 26.63 27.59 27.42 27.08 26.81 26.91 27.07 28.35 30.22 32.30 33.26 34.02 34.59 35.10 35.48 35.70 35.52 34.95 34.40 34.02 33.90 33.73 33.67 33.59 33.65 33.71 33.62 33.67 33.66 33.67 33.57 33.49 33.39 33.36 33.72
19.92 19.58 19.83 20.42 21.12 21.49 21.49 21.30 22.11 23.17 24.07 24.58 24.86 24.80 24.63 24.60 24.92 25.12 25.98 28.28 26.95 26.41 26.21 26.03 26.04 26.08 26.08 26.08 26.06 26.03 25.86 25.45 25.91 26.14 26.50 26.96 26.87 26.67 26.58 26.78 27.16 28.20 29.75 31.80 33.01 33.80 34.38 34.82 35.15 35.31 35.07 34.31 33.92 33.86 33.81 33.79 33.53 33.43 33.31 33.28 33.18 33.11 33.15 33.14 33.11 33.04 33.11 33.37 33.67
20.16 20.13 20.30 20.54 20.67 20.94 21.36 21.89 22.95 23.63 24.12 24.36 24.40 24.23 24.09 24.19 24.79 25.56 26.56 27.61 26.29 25.81 25.79 25.90 26.00 25.91 25.94 26.36 26.58 26.47 26.13 25.73 25.76 26.06 26.30 26.39 26.47 26.98 27.59 27.70 27.96 28.64 29.96 31.67 32.89 33.62 34.07 34.48 34.81 35.06 35.04 34.48 34.05 33.91 33.81 33.68 33.35 33.12 33.01 32.77 32.58 32.51 32.56 32.65 32.66 32.62 32.74 33.14 33.78
20.18 20.30 20.42 20.48 20.51 20.90 21.58 22.65 23.45 23.64 23.56 23.62 23.97 24.14 24.44 25.16 25.96 26.74 27.06 26.18 25.01 24.75 24.94 25.20 25.35 25.48 25.92 27.03 27.04 26.61 26.09 25.85 25.32 25.41 25.81 26.20 26.53 27.68 28.77 28.60 28.39 28.71 29.56 31.08 32.30 33.11 33.73 34.08 34.46 34.88 34.95 34.49 34.25 34.11 33.94 33.57 33.27 32.87 32.61 32.29 32.03 31.93 31.92 32.06 32.47 32.63 32.64 32.73 33.51
20.10 20.71 21.58 22.08 21.80 21.70 22.03 22.92 23.36 23.28 23.13 23.19 23.59 24.34 25.43 26.62 26.35 26.13 25.74 24.82 24.42 24.45 24.68 25.03 25.12 25.20 25.49 26.40 26.57 26.05 25.46 25.24 25.41 25.43 25.56 26.18 26.41 27.41 28.18 27.97 27.61 27.51 27.95 29.15 30.93 32.30 33.29 33.82 34.31 34.82 35.02 34.65 34.33 34.22 34.09 33.63 33.00 32.48 32.14 31.90 31.74 31.65 31.53 31.67 32.00 32.44 32.66 32.63 32.81
MSLP
1009.99 1009.95 1009.95 1009.99 1010.19 1010.39 1010.51 1010.67 1010.79 1010.79 1010.83 1010.87 1010.95 1010.95 1010.95 1011.07 1011.11 1011.23 1011.23 1011.27 1011.43 1011.59 1011.67 1011.71 1011.67 1011.67 1011.75 1011.79 1011.83 1011.91 1012.03 1012.15 1012.31 1012.39 1012.43 1012.43 1012.51 1012.63 1012.79 1013.07 1013.19 1013.23 1013.23 1013.27 1013.31 1013.39 1013.43 1013.43 1013.39 1013.43 1013.51 1013.67 1013.83 1013.99 1014.15 1014.27 1014.35 1014.39 1014.43 1014.51 1014.55 1014.59 1014.63 1014.67 1014.75 1014.79 1014.91 1015.03 1015.11
1010.19 1010.19 1010.23 1010.31 1010.43 1010.63 1010.79 1010.95 1011.03 1011.11 1011.11 1011.19 1011.27 1011.35 1011.39 1011.43 1011.55 1011.67 1011.75 1011.83 1011.95 1012.03 1012.07 1012.03 1011.95 1011.99 1012.11 1012.23 1012.23 1012.27 1012.39 1012.51 1012.67 1012.79 1012.83 1012.83 1012.87 1012.95 1013.11 1013.23 1013.35 1013.39 1013.39 1013.39 1013.39 1013.39 1013.39 1013.35 1013.35 1013.43 1013.59 1013.79 1013.95 1014.11 1014.19 1014.27 1014.27 1014.35 1014.39 1014.47 1014.51 1014.59 1014.67 1014.71 1014.79 1014.95 1015.07 1015.19 1015.23
1010.51 1010.51 1010.55 1010.63 1010.71 1010.83 1010.99 1011.15 1011.27 1011.35 1011.39 1011.51 1011.55 1011.63 1011.67 1011.75 1011.87 1011.95 1012.11 1012.23 1012.35 1012.39 1012.39 1012.35 1012.31 1012.39 1012.51 1012.59 1012.63 1012.67 1012.71 1012.83 1012.99 1013.11 1013.11 1013.11 1013.15 1013.23 1013.35 1013.43 1013.51 1013.51 1013.51 1013.51 1013.51 1013.51 1013.47 1013.43 1013.47 1013.59 1013.79 1013.95 1014.11 1014.23 1014.27 1014.39 1014.35 1014.39 1014.43 1014.51 1014.55 1014.67 1014.75 1014.87 1014.99 1015.11 1015.23 1015.27 1015.35
1010.79 1010.87 1010.95 1010.99 1011.07 1011.15 1011.23 1011.39 1011.51 1011.63 1011.67 1011.75 1011.79 1011.87 1011.99 1012.11 1012.23 1012.31 1012.43 1012.51 1012.63 1012.71 1012.79 1012.75 1012.71 1012.79 1012.91 1012.99 1013.03 1013.11 1013.15 1013.23 1013.39 1013.47 1013.51 1013.51 1013.51 1013.59 1013.63 1013.63 1013.59 1013.59 1013.59 1013.59 1013.63 1013.63 1013.63 1013.67 1013.79 1013.95 1014.11 1014.23 1014.39 1014.47 1014.51 1014.55 1014.51 1014.51 1014.55 1014.63 1014.71 1014.83 1014.95 1015.07 1015.19 1015.27 1015.31 1015.31 1015.27
1011.19 1011.27 1011.39 1011.39 1011.43 1011.51 1011.55 1011.67 1011.79 1011.87 1011.95 1011.99 1012.07 1012.19 1012.35 1012.43 1012.51 1012.59 1012.67 1012.79 1012.95 1013.11 1013.19 1013.11 1013.11 1013.23 1013.39 1013.51 1013.63 1013.71 1013.79 1013.91 1013.95 1013.99 1013.99 1013.95 1013.91 1013.87 1013.83 1013.79 1013.71 1013.75 1013.79 1013.79 1013.87 1013.91 1013.95 1014.03 1014.19 1014.35 1014.47 1014.55 1014.67 1014.79 1014.83 1014.79 1014.67 1014.67 1014.75 1014.79 1014.91 1014.99 1015.07 1015.15 1015.23 1015.27 1015.23 1015.23 1015.19
1011.59 1011.71 1011.75 1011.79 1011.75 1011.79 1011.95 1012.07 1012.11 1012.11 1012.23 1012.31 1012.39 1012.51 1012.67 1012.79 1012.79 1012.83 1012.95 1013.19 1013.39 1013.51 1013.51 1013.51 1013.63 1013.79 1013.95 1014.11 1014.19 1014.23 1014.27 1014.35 1014.35 1014.31 1014.23 1014.19 1014.15 1014.11 1013.99 1013.95 1013.91 1013.95 1014.07 1014.19 1014.27 1014.35 1014.39 1014.43 1014.55 1014.71 1014.79 1014.83 1014.95 1014.99 1014.99 1014.95 1014.87 1014.87 1014.95 1014.99 1015.11 1015.19 1015.23 1015.23 1015.23 1015.23 1015.19 1015.15 1015.11
1011.95 1012.03 1012.11 1012.11 1012.11 1012.19 1012.27 1012.35 1012.39 1012.39 1012.51 1012.63 1012.67 1012.83 1012.95 1013.07 1013.11 1013.15 1013.27 1013.43 1013.59 1013.67 1013.71 1013.79 1013.95 1014.11 1014.23 1014.31 1014.31 1014.27 1014.31 1014.35 1014.35 1014.35 1014.35 1014.35 1014.35 1014.31 1014.23 1014.15 1014.19 1014.27 1014.39 1014.51 1014.63 1014.67 1014.71 1014.71 1014.79 1014.87 1014.95 1014.95 1014.95 1014.99 1015.03 1014.99 1014.95 1014.95 1015.07 1015.19 1015.23 1015.31 1015.35 1015.35 1015.35 1015.31 1015.23 1015.23 1015.15
1012.23 1012.35 1012.43 1012.51 1012.51 1012.55 1012.59 1012.59 1012.59 1012.67 1012.79 1012.91 1013.07 1013.23 1013.31 1013.35 1013.35 1013.39 1013.51 1013.59 1013.67 1013.75 1013.79 1013.95 1014.11 1014.23 1014.23 1014.19 1014.19 1014.23 1014.23 1014.27 1014.35 1014.39 1014.51 1014.63 1014.63 1014.51 1014.39 1014.39 1014.47 1014.59 1014.67 1014.79 1014.83 1014.79 1014.79 1014.79 1014.83 1014.87 1014.91 1014.95 1014.99 1015.11 1015.11 1015.11 1015.11 1015.11 1015.19 1015.27 1015.35 1015.39 1015.43 1015.43 1015.43 1015.39 1015.35 1015.27 1015.23
1012.51 1012.71 1012.79 1012.79 1012.83 1012.83 1012.83 1012.83 1012.83 1012.87 1012.99 1013.19 1013.35 1013.47 1013.51 1013.55 1013.55 1013.59 1013.67 1013.79 1013.83 1013.83 1013.91 1014.07 1014.23 1014.27 1014.27 1014.23 1014.27 1014.39 1014.47 1014.51 1014.63 1014.75 1014.83 1014.91 1014.79 1014.67 1014.51 1014.51 1014.63 1014.75 1014.83 1014.91 1014.91 1014.91 1014.87 1014.87 1014.95 1015.03 1015.11 1015.15 1015.19 1015.23 1015.31 1015.31 1015.27 1015.31 1015.35 1015.39 1015.47 1015.51 1015.51 1015.51 1015.51 1015.47 1015.43 1015.39 1015.35
1012.91 1013.07 1013.11 1013.07 1013.07 1012.99 1012.95 1013.03 1013.07 1013.11 1013.23 1013.39 1013.55 1013.67 1013.71 1013.75 1013.75 1013.79 1013.87 1013.95 1013.95 1013.95 1014.03 1014.23 1014.35 1014.39 1014.47 1014.51 1014.67 1014.79 1014.87 1014.95 1015.03 1015.11 1015.15 1015.07 1014.91 1014.75 1014.71 1014.75 1014.83 1014.95 1015.03 1015.11 1015.11 1015.07 1015.07 1015.11 1015.19 1015.27 1015.39 1015.43 1015.47 1015.51 1015.51 1015.51 1015.51 1015.51 1015.51 1015.55 1015.63 1015.63 1015.59 1015.63 1015.63 1015.55 1015.51 1015.47 1015.43
1013.23 1013.23 1013.23 1013.23 1013.19 1013.15 1013.11 1013.19 1013.23 1013.39 1013.51 1013.63 1013.79 1013.83 1013.87 1013.91 1013.95 1013.95 1013.95 1013.95 1013.91 1014.03 1014.23 1014.39 1014.51 1014.67 1014.79 1014.95 1015.11 1015.19 1015.27 1015.35 1015.39 1015.35 1015.27 1015.11 1015.03 1014.95 1014.95 1015.03 1015.11 1015.19 1015.23 1015.35 1015.35 1015.39 1015.39 1015.43 1015.51 1015.51 1015.59 1015.67 1015.67 1015.67 1015.67 1015.67 1015.67 1015.67 1015.71 1015.71 1015.71 1015.71 1015.67 1015.67 1015.67 1015.67 1015.59 1015.55 1015.55
1013.39 1013.39 1013.39 1013.39 1013.39 1013.35 1013.35 1013.39 1013.51 1013.67 1013.79 1013.87 1013.95 1013.95 1013.99 1014.03 1014.07 1014.03 1013.99 1013.95 1014.11 1014.35 1014.63 1014.79 1014.95 1015.07 1015.23 1015.39 1015.43 1015.51 1015.51 1015.51 1015.47 1015.39 1015.27 1015.23 1015.23 1015.23 1015.27 1015.35 1015.39 1015.51 1015.55 1015.63 1015.67 1015.67 1015.67 1015.67 1015.71 1015.71 1015.75 1015.79 1015.75 1015.79 1015.79 1015.79 1015.79 1015.79 1015.83 1015.83 1015.79 1015.75 1015.71 1015.71 1015.71 1015.71 1015.67 1015.67 1015.67
1013.51 1013.51 1013.55 1013.55 1013.51 1013.51 1013.51 1013.63 1013.79 1013.87 1013.95 1014.03 1014.07 1014.11 1014.15 1014.23 1014.31 1014.31 1014.31 1014.39 1014.63 1014.87 1015.11 1015.27 1015.39 1015.47 1015.55 1015.67 1015.67 1015.67 1015.63 1015.59 1015.51 1015.47 1015.43 1015.43 1015.47 1015.51 1015.55 1015.63 1015.67 1015.75 1015.79 1015.79 1015.87 1015.83 1015.83 1015.83 1015.83 1015.83 1015.79 1015.83 1015.87 1015.87 1015.91 1015.91 1015.91 1015.95 1015.95 1015.91 1015.87 1015.79 1015.79 1015.79 1015.79 1015.79 1015.79 1015.75 1015.75
1013.67 1013.67 1013.67 1013.71 1013.67 1013.67 1013.67 1013.79 1013.95 1014.07 1014.15 1014.23 1014.35 1014.43 1014.51 1014.63 1014.71 1014.75 1014.83 1014.99 1015.15 1015.35 1015.51 1015.63 1015.75 1015.79 1015.83 1015.87 1015.83 1015.79 1015.79 1015.71 1015.67 1015.63 1015.63 1015.67 1015.67 1015.71 1015.79 1015.83 1015.87 1015.91 1015.95 1015.95 1015.95 1015.95 1015.95 1015.95 1015.95 1015.95 1015.95 1015.95 1015.99 1016.03 1016.03 1016.03 1016.07 1016.11 1016.11 1016.03 1015.99 1015.95 1015.91 1015.87 1015.83 1015.87 1015.83 1015.79 1015.79
1013.91 1013.95 1013.95 1013.95 1013.87 1013.87 1013.95 1014.07 1014.23 1014.39 1014.51 1014.63 1014.79 1014.87 1014.95 1015.07 1015.15 1015.23 1015.35 1015.47 1015.63 1015.75 1015.83 1015.91 1015.99 1016.07 1016.07 1016.07 1015.99 1015.95 1015.91 1015.83 1015.79 1015.79 1015.79 1015.83 1015.87 1015.95 1015.95 1015.99 1015.99 1016.03 1016.07 1016.07 1016.07 1016.07 1016.11 1016.11 1016.11 1016.15 1016.15 1016.15 1016.19 1016.19 1016.19 1016.19 1016.23 1016.23 1016.23 1016.19 1016.15 1016.11 1016.07 1015.99 1015.95 1015.95 1015.95 1015.87 1015.83
1014.23 1014.27 1014.23 1014.15 1014.11 1014.15 1014.23 1014.39 1014.59 1014.79 1014.95 1015.11 1015.23 1015.27 1015.39 1015.47 1015.59 1015.67 1015.75 1015.83 1015.99 1016.07 1016.11 1016.19 1016.23 1016.23 1016.23 1016.23 1016.15 1016.11 1015.99 1015.95 1015.95 1015.95 1015.95 1016.03 1016.11 1016.11 1016.15 1016.15 1016.19 1016.23 1016.23 1016.23 1016.23 1016.23 1016.23 1016.27 1016.31 1016.39 1016.39 1016.31 1016.31 1016.27 1016.27 1016.27 1016.27 1016.27 1016.27 1016.23 1016.23 1016.19 1016.15 1016.11 1016.11 1016.03 1015.99 1015.95 1015.95
1014.51 1014.55 1014.51 1014.43 1014.47 1014.55 1014.67 1014.87 1015.07 1015.23 1015.43 1015.59 1015.67 1015.75 1015.79 1015.91 1015.99 1016.07 1016.11 1016.23 1016.27 1016.35 1016.39 1016.39 1016.39 1016.39 1016.35 1016.31 1016.23 1016.19 1016.11 1016.11 1016.11 1016.15 1016.23 1016.31 1016.35 1016.39 1016.39 1016.39 1016.43 1016.47 1016.47 1016.47 1016.47 1016.43 1016.43 1016.47 1016.47 1016.51 1016.51 1016.47 1016.43 1016.39 1016.39 1016.39 1016.35 1016.31 1016.31 1016.31 1016.27 1016.23 1016.23 1016.15 1016.11 1016.07 1015.99 1015.95 1015.95
1014.95 1014.99 1014.95 1014.99 1015.11 1015.23 1015.35 1015.51 1015.67 1015.79 1015.95 1016.07 1016.11 1016.19 1016.27 1016.35 1016.39 1016.47 1016.51 1016.55 1016.51 1016.51 1016.51 1016.51 1016.51 1016.47 1016.43 1016.39 1016.39 1016.35 1016.35 1016.39 1016.43 1016.51 1016.51 1016.59 1016.67 1016.67 1016.67 1016.67 1016.67 1016.67 1016.67 1016.67 1016.67 1016.67 1016.67 1016.63 1016.63 1016.63 1016.63 1016.59 1016.55 1016.51 1016.51 1016.47 1016.43 1016.39 1016.39 1016.35 1016.31 1016.27 1016.23 1016.23 1016.19 1016.11 1016.11 1016.03 1015.99
1015.51 1015.59 1015.63 1015.67 1015.75 1015.83 1015.95 1016.11 1016.23 1016.31 1016.39 1016.51 1016.51 1016.59 1016.67 1016.67 1016.67 1016.67 1016.71 1016.71 1016.67 1016.63 1016.59 1016.59 1016.59 1016.59 1016.59 1016.59 1016.63 1016.63 1016.63 1016.67 1016.79 1016.79 1016.83 1016.91 1016.91 1016.91 1016.95 1016.95 1016.95 1016.91 1016.91 1016.91 1016.87 1016.83 1016.83 1016.79 1016.75 1016.75 1016.71 1016.67 1016.63 1016.59 1016.55 1016.51 1016.51 1016.43 1016.39 1016.39 1016.35 1016.31 1016.27 1016.23 1016.23 1016.19 1016.15 1016.11 1016.11
1016.03 1016.11 1016.19 1016.23 1016.27 1016.39 1016.47 1016.51 1016.63 1016.67 1016.75 1016.79 1016.79 1016.83 1016.87 1016.87 1016.83 1016.79 1016.79 1016.83 1016.83 1016.79 1016.75 1016.79 1016.79 1016.79 1016.83 1016.87 1016.91 1016.95 1016.95 1016.99 1017.07 1017.11 1017.15 1017.19 1017.15 1017.15 1017.15 1017.15 1017.15 1017.11 1017.11 1017.07 1016.99 1016.95 1016.95 1016.87 1016.79 1016.79 1016.75 1016.67 1016.67 1016.59 1016.55 1016.55 1016.51 1016.47 1016.47 1016.39 1016.39 1016.39 1016.31 1016.27 1016.23 1016.23 1016.15 1016.11 1016.11
1016.47 1016.51 1016.59 1016.63 1016.67 1016.71 1016.79 1016.83 1016.87 1016.87 1016.91 1016.91 1016.91 1016.95 1016.95 1016.95 1016.95 1016.95 1017.03 1017.07 1017.07 1017.03 1016.99 1017.03 1017.07 1017.11 1017.15 1017.19 1017.19 1017.23 1017.27 1017.31 1017.35 1017.39 1017.39 1017.39 1017.39 1017.39 1017.39 1017.35 1017.31 1017.27 1017.23 1017.19 1017.11 1017.03 1016.95 1016.91 1016.83 1016.79 1016.75 1016.71 1016.67 1016.63 1016.59 1016.55 1016.51 1016.51 1016.47 1016.39 1016.39 1016.35 1016.27 1016.23 1016.23 1016.19 1016.11 1016.07 1016.07
1016.79 1016.83 1016.87 1016.87 1016.83 1016.87 1016.95 1016.95 1016.95 1016.95 1016.99 1016.99 1017.03 1017.11 1017.11 1017.15 1017.23 1017.27 1017.35 1017.35 1017.27 1017.27 1017.35 1017.39 1017.39 1017.47 1017.51 1017.51 1017.51 1017.51 1017.55 1017.55 1017.59 1017.59 1017.59 1017.55 1017.51 1017.51 1017.51 1017.51 1017.47 1017.39 1017.31 1017.23 1017.15 1017.11 1017.03 1016.95 1016.87 1016.79 1016.79 1016.75 1016.67 1016.67 1016.59 1016.51 1016.47 1016.39 1016.39 1016.31 1016.27 1016.23 1016.19 1016.15 1016.11 1016.11 1016.07 1016.03 1015.99
1016.95 1016.99 1017.03 1016.99 1016.99 1017.03 1017.07 1017.07 1017.11 1017.11 1017.19 1017.23 1017.31 1017.39 1017.39 1017.51 1017.55 1017.63 1017.67 1017.63 1017.59 1017.63 1017.67 1017.67 1017.71 1017.75 1017.79 1017.79 1017.79 1017.79 1017.75 1017.75 1017.75 1017.75 1017.75 1017.71 1017.67 1017.67 1017.67 1017.63 1017.55 1017.47 1017.39 1017.27 1017.15 1017.07 1016.95 1016.87 1016.79 1016.79 1016.75 1016.67 1016.67 1016.59 1016.51 1016.47 1016.39 1016.27 1016.19 1016.11 1016.07 1016.03 1015.99 1015.99 1015.99 1015.95 1015.95 1015.95 1015.95
1017.11 1017.15 1017.19 1017.23 1017.23 1017.27 1017.31 1017.35 1017.39 1017.43 1017.51 1017.63 1017.67 1017.75 1017.79 1017.83 1017.87 1017.87 1017.87 1017.87 1017.91 1017.95 1017.95 1017.95 1017.95 1017.99 1018.03 1018.03 1017.99 1017.95 1017.91 1017.87 1017.83 1017.83 1017.79 1017.79 1017.79 1017.71 1017.67 1017.67 1017.59 1017.51 1017.43 1017.31 1017.15 1016.99 1016.87 1016.75 1016.67 1016.63 1016.59 1016.55 1016.51 1016.43 1016.39 1016.31 1016.23 1016.15 1016.07 1015.95 1015.91 1015.87 1015.83 1015.83 1015.87 1015.87 1015.87 1015.87 1015.87
1017.39 1017.43 1017.47 1017.51 1017.59 1017.67 1017.67 1017.71 1017.75 1017.83 1017.95 1017.99 1018.03 1018.07 1018.11 1018.11 1018.11 1018.11 1018.11 1018.11 1018.11 1018.15 1018.15 1018.15 1018.11 1018.11 1018.11 1018.11 1018.11 1018.07 1017.99 1017.95 1017.95 1017.91 1017.87 1017.79 1017.79 1017.71 1017.67 1017.59 1017.51 1017.47 1017.39 1017.23 1017.07 1016.91 1016.79 1016.67 1016.55 1016.51 1016.43 1016.39 1016.35 1016.27 1016.23 1016.23 1016.15 1016.11 1016.07 1015.95 1015.95 1015.87 1015.83 1015.79 1015.79 1015.83 1015.87 1015.87 1015.83
1017.75 1017.79 1017.91 1017.95 1017.99 1017.99 1018.07 1018.11 1018.15 1018.19 1018.23 1018.31 1018.31 1018.31 1018.31 1018.31 1018.31 1018.27 1018.27 1018.27 1018.27 1018.27 1018.27 1018.23 1018.23 1018.15 1018.15 1018.15 1018.11 1018.11 1018.03 1017.99 1017.95 1017.95 1017.87 1017.79 1017.75 1017.67 1017.63 1017.55 1017.51 1017.43 1017.35 1017.19 1016.99 1016.83 1016.75 1016.63 1016.51 1016.39 1016.35 1016.31 1016.27 1016.23 1016.19 1016.15 1016.11 1016.11 1016.07 1016.03 1015.95 1015.95 1015.91 1015.79 1015.79 1015.83 1015.83 1015.83 1015.83
1018.11 1018.23 1018.27 1018.35 1018.35 1018.35 1018.39 1018.47 1018.47 1018.47 1018.47 1018.47 1018.47 1018.47 1018.47 1018.47 1018.47 1018.39 1018.39 1018.39 1018.39 1018.39 1018.39 1018.35 1018.35 1018.27 1018.23 1018.23 1018.15 1018.11 1018.07 1018.03 1017.99 1017.95 1017.91 1017.83 1017.75 1017.67 1017.59 1017.55 1017.51 1017.43 1017.31 1017.15 1016.95 1016.83 1016.67 1016.55 1016.47 1016.39 1016.31 1016.23 1016.23 1016.19 1016.11 1016.07 1016.07 1016.07 1016.03 1015.99 1015.99 1015.95 1015.91 1015.91 1015.83 1015.79 1015.79 1015.75 1015.75
1018.47 1018.51 1018.51 1018.51 1018.51 1018.55 1018.59 1018.59 1018.59 1018.63 1018.63 1018.59 1018.59 1018.63 1018.59 1018.55 1018.51 1018.51 1018.51 1018.51 1018.43 1018.39 1018.39 1018.39 1018.39 1018.31 1018.23 1018.23 1018.15 1018.11 1018.11 1018.07 1017.99 1017.95 1017.95 1017.87 1017.79 1017.71 1017.67 1017.59 1017.51 1017.43 1017.31 1017.15 1016.95 1016.79 1016.67 1016.51 1016.43 1016.35 1016.23 1016.15 1016.11 1016.11 1016.07 1016.03 1015.95 1015.95 1015.95 1015.95 1015.95 1015.91 1015.91 1015.87 1015.79 1015.79 1015.71 1015.67 1015.63
1018.71 1018.71 1018.67 1018.67 1018.71 1018.75 1018.75 1018.75 1018.75 1018.79 1018.79 1018.79 1018.75 1018.71 1018.67 1018.59 1018.55 1018.51 1018.51 1018.51 1018.43 1018.39 1018.39 1018.43 1018.39 1018.35 1018.27 1018.23 1018.23 1018.19 1018.11 1018.11 1018.03 1017.99 1017.95 1017.91 1017.79 1017.75 1017.67 1017.63 1017.55 1017.43 1017.27 1017.11 1016.91 1016.75 1016.59 1016.47 1016.35 1016.23 1016.19 1016.11 1015.99 1015.95 1015.95 1015.95 1015.87 1015.87 1015.87 1015.87 1015.87 1015.87 1015.83 1015.79 1015.79 1015.71 1015.67 1015.59 1015.51
1018.87 1018.83 1018.83 1018.83 1018.83 1018.83 1018.87 1018.91 1018.91 1018.91 1018.87 1018.83 1018.75 1018.67 1018.63 1018.59 1018.55 1018.51 1018.51 1018.51 1018.51 1018.51 1018.51 1018.51 1018.47 1018.39 1018.39 1018.39 1018.31 1018.23 1018.19 1018.15 1018.11 1018.03 1017.95 1017.91 1017.79 1017.67 1017.67 1017.59 1017.51 1017.39 1017.23 1017.03 1016.79 1016.63 1016.47 1016.39 1016.23 1016.15 1016.11 1015.99 1015.95 1015.91 1015.83 1015.83 1015.83 1015.83 1015.83 1015.83 1015.83 1015.79 1015.79 1015.79 1015.75 1015.67 1015.63 1015.55 1015.43
1018.99 1018.95 1018.91 1018.91 1018.91 1018.95 1018.95 1018.99 1018.95 1018.95 1018.91 1018.79 1018.71 1018.67 1018.63 1018.63 1018.63 1018.63 1018.67 1018.67 1018.63 1018.63 1018.63 1018.67 1018.59 1018.51 1018.51 1018.47 1018.39 1018.31 1018.23 1018.15 1018.07 1017.99 1017.91 1017.79 1017.71 1017.63 1017.51 1017.43 1017.35 1017.23 1017.07 1016.83 1016.63 1016.47 1016.35 1016.23 1016.11 1016.11 1016.03 1015.95 1015.87 1015.83 1015.79 1015.79 1015.79 1015.83 1015.83 1015.83 1015.79 1015.79 1015.79 1015.75 1015.67 1015.59 1015.51 1015.47 1015.39
1019.07 1018.99 1018.95 1018.95 1018.95 1018.95 1018.99 1018.99 1018.95 1018.91 1018.83 1018.79 1018.75 1018.71 1018.71 1018.75 1018.79 1018.79 1018.79 1018.79 1018.79 1018.75 1018.71 1018.67 1018.59 1018.55 1018.51 1018.39 1018.35 1018.23 1018.15 1018.03 1017.95 1017.83 1017.75 1017.67 1017.59 1017.51 1017.39 1017.23 1017.15 1017.03 1016.87 1016.67 1016.51 1016.39 1016.31 1016.23 1016.11 1016.07 1015.99 1015.95 1015.87 1015.83 1015.83 1015.83 1015.87 1015.83 1015.83 1015.83 1015.79 1015.79 1015.75 1015.67 1015.55 1015.51 1015.39 1015.35 1015.23
1019.07 1018.99 1018.95 1018.95 1018.99 1018.99 1018.99 1018.99 1018.95 1018.95 1018.91 1018.87 1018.87 1018.91 1018.95 1018.95 1018.95 1018.95 1018.91 1018.87 1018.79 1018.79 1018.71 1018.67 1018.59 1018.51 1018.43 1018.31 1018.23 1018.11 1017.99 1017.87 1017.79 1017.67 1017.63 1017.55 1017.51 1017.39 1017.27 1017.15 1017.07 1016.95 1016.83 1016.67 1016.55 1016.47 1016.39 1016.23 1016.19 1016.11 1016.03 1015.95 1015.91 1015.91 1015.91 1015.91 1015.87 1015.83 1015.79 1015.75 1015.67 1015.67 1015.59 1015.51 1015.43 1015.35 1015.23 1015.15 1015.07
1019.15 1019.11 1019.07 1019.07 1019.11 1019.11 1019.11 1019.11 1019.11 1019.11 1019.11 1019.11 1019.11 1019.11 1019.11 1019.07 1019.03 1018.95 1018.91 1018.79 1018.79 1018.71 1018.67 1018.67 1018.59 1018.51 1018.39 1018.31 1018.23 1018.11 1017.95 1017.83 1017.79 1017.71 1017.67 1017.59 1017.51 1017.43 1017.31 1017.23 1017.11 1017.03 1016.95 1016.79 1016.67 1016.55 1016.43 1016.35 1016.23 1016.15 1016.07 1015.95 1015.95 1015.91 1015.91 1015.87 1015.79 1015.75 1015.67 1015.59 1015.51 1015.47 1015.43 1015.35 1015.23 1015.15 1015.03 1014.91 1014.83
1019.31 1019.27 1019.23 1019.23 1019.27 1019.31 1019.31 1019.31 1019.31 1019.31 1019.31 1019.27 1019.23 1019.19 1019.15 1019.11 1019.03 1018.95 1018.91 1018.79 1018.71 1018.71 1018.67 1018.67 1018.59 1018.51 1018.43 1018.39 1018.31 1018.19 1018.07 1017.95 1017.91 1017.83 1017.79 1017.71 1017.67 1017.55 1017.43 1017.35 1017.23 1017.15 1017.03 1016.91 1016.79 1016.63 1016.51 1016.39 1016.23 1016.15 1016.03 1015.91 1015.87 1015.83 1015.79 1015.75 1015.67 1015.55 1015.51 1015.39 1015.31 1015.23 1015.15 1015.11 1015.03 1014.95 1014.83 1014.71 1014.67
1019.55 1019.55 1019.55 1019.51 1019.51 1019.51 1019.51 1019.51 1019.51 1019.47 1019.43 1019.39 1019.31 1019.23 1019.19 1019.15 1019.07 1018.99 1018.95 1018.83 1018.79 1018.79 1018.75 1018.67 1018.67 1018.59 1018.51 1018.39 1018.39 1018.27 1018.23 1018.15 1018.11 1017.99 1017.95 1017.83 1017.79 1017.67 1017.51 1017.39 1017.27 1017.19 1017.11 1016.95 1016.79 1016.63 1016.51 1016.35 1016.19 1016.07 1015.95 1015.83 1015.79 1015.71 1015.67 1015.55 1015.47 1015.35 1015.23 1015.11 1015.03 1014.99 1014.95 1014.87 1014.79 1014.67 1014.63 1014.55 1014.47
1019.83 1019.83 1019.79 1019.79 1019.79 1019.71 1019.71 1019.75 1019.67 1019.67 1019.59 1019.51 1019.43 1019.39 1019.31 1019.23 1019.15 1019.11 1019.03 1018.95 1018.91 1018.87 1018.83 1018.79 1018.75 1018.67 1018.63 1018.51 1018.43 1018.39 1018.31 1018.27 1018.23 1018.11 1017.99 1017.91 1017.83 1017.71 1017.55 1017.39 1017.23 1017.11 1017.03 1016.91 1016.75 1016.55 1016.39 1016.27 1016.11 1015.95 1015.83 1015.75 1015.67 1015.55 1015.47 1015.35 1015.23 1015.11 1014.95 1014.87 1014.79 1014.79 1014.75 1014.67 1014.59 1014.51 1014.43 1014.39 1014.27
1020.07 1020.11 1020.07 1020.03 1019.95 1019.95 1019.95 1019.91 1019.87 1019.79 1019.71 1019.63 1019.51 1019.47 1019.39 1019.31 1019.23 1019.19 1019.11 1018.99 1018.99 1018.95 1018.91 1018.83 1018.79 1018.71 1018.67 1018.59 1018.51 1018.39 1018.35 1018.31 1018.23 1018.11 1017.99 1017.87 1017.79 1017.71 1017.55 1017.35 1017.11 1016.99 1016.91 1016.79 1016.63 1016.43 1016.27 1016.11 1015.95 1015.83 1015.75 1015.63 1015.47 1015.39 1015.27 1015.15 1014.99 1014.91 1014.79 1014.71 1014.67 1014.63 1014.55 1014.51 1014.43 1014.35 1014.27 1014.19 1014.07
1020.31 1020.27 1020.27 1020.23 1020.19 1020.11 1020.11 1019.99 1019.95 1019.83 1019.71 1019.63 1019.51 1019.43 1019.35 1019.31 1019.23 1019.19 1019.11 1019.07 1019.11 1019.07 1018.95 1018.91 1018.79 1018.71 1018.63 1018.55 1018.47 1018.35 1018.23 1018.15 1018.15 1018.11 1017.95 1017.79 1017.71 1017.59 1017.47 1017.23 1017.03 1016.83 1016.71 1016.59 1016.47 1016.31 1016.15 1015.99 1015.87 1015.75 1015.63 1015.47 1015.31 1015.19 1015.11 1014.99 1014.83 1014.75 1014.67 1014.59 1014.51 1014.43 1014.39 1014.31 1014.23 1014.15 1014.07 1013.95 1013.87
1020.43 1020.39 1020.39 1020.35 1020.27 1020.19 1020.11 1019.99 1019.87 1019.79 1019.67 1019.59 1019.51 1019.43 1019.35 1019.27 1019.23 1019.15 1019.11 1019.11 1019.11 1019.07 1018.99 1018.91 1018.79 1018.67 1018.59 1018.51 1018.39 1018.23 1018.11 1017.95 1017.95 1017.95 1017.87 1017.75 1017.63 1017.47 1017.31 1017.15 1016.95 1016.75 1016.59 1016.51 1016.39 1016.23 1016.07 1015.91 1015.75 1015.63 1015.47 1015.35 1015.19 1015.07 1014.95 1014.79 1014.71 1014.59 1014.51 1014.43 1014.35 1014.23 1014.15 1014.11 1014.07 1013.95 1013.79 1013.71 1013.67
1020.51 1020.43 1020.39 1020.27 1020.19 1020.07 1019.95 1019.87 1019.75 1019.67 1019.63 1019.55 1019.51 1019.43 1019.35 1019.23 1019.23 1019.15 1019.11 1019.11 1019.07 1018.99 1018.91 1018.79 1018.71 1018.63 1018.55 1018.47 1018.31 1018.19 1018.03 1017.83 1017.75 1017.71 1017.67 1017.59 1017.51 1017.39 1017.23 1017.11 1016.95 1016.75 1016.59 1016.43 1016.27 1016.11 1015.99 1015.79 1015.67 1015.51 1015.35 1015.19 1015.03 1014.91 1014.79 1014.67 1014.55 1014.39 1014.31 1014.23 1014.15 1014.11 1013.99 1013.87 1013.79 1013.67 1013.59 1013.47 1013.39
Wind_Speed
3 2 2 2 3 4 4 4 4 4 4 4 5 5 5 5 5 6 6 6 6 5 5 5 5 6 8 10 11 11 11 10 10 10 9 9 9 9 9 7 6 6 6 6 5 5 5 5 4 4 4 4 3 3 3 3 3 3 3 2 2 1 1 1 2 2 3 3 3
7 7 7 7 6 5 5 5 5 5 5 5 5 6 6 6 6 6 7 7 6 5 5 5 7 8 10 10 10 10 10 11 11 10 10 10 10 10 9 8 8 8 7 7 6 5 4 5 5 5 4 3 3 3 2 2 2 3 3 3 2 2 2 2 1 2 2 3 3
8 8 8 7 7 6 6 5 6 7 7 6 6 6 6 6 6 6 7 7 7 6 6 6 8 9 10 10 10 10 10 11 11 10 9 9 10 10 10 9 9 9 9 8 7 6 5 5 5 5 4 4 4 3 3 3 3 3 3 3 3 2 2 1 1 2 2 2 3
10 9 9 9 9 9 7 6 7 8 8 7 7 7 7 7 6 7 7 8 8 8 7 7 8 9 10 10 11 11 11 11 11 10 10 10 10 10 10 10 10 10 10 9 9 8 7 7 6 5 5 5 6 5 4 3 3 3 3 3 2 2 1 1 1 2 2 3 3
11 10 9 9 10 10 9 8 9 8 7 7 7 7 7 6 6 7 7 8 8 8 8 9 9 9 9 10 11 11 11 11 10 9 9 9 10 10 11 11 11 11 10 10 10 9 8 7 6 5 5 5 5 5 5 4 4 4 3 3 2 2 2 1 1 1 2 3 3
11 11 10 10 11 11 10 9 10 10 9 8 9 9 8 6 6 7 8 8 8 9 10 10 9 9 8 9 9 9 9 9 8 8 9 9 10 10 12 12 12 11 10 10 9 9 8 6 5 4 4 4 4 5 5 5 4 4 4 3 3 3 3 3 2 2 2 3 3
12 11 11 11 12 11 11 10 10 11 10 10 11 11 10 9 9 10 10 9 8 8 9 9 8 8 7 7 8 8 8 9 9 10 10 10 10 10 11 12 12 11 10 9 9 8 7 6 5 4 4 4 4 5 6 6 5 4 4 4 3 3 3 4 3 3 4 5 6
12 12 12 12 12 12 12 12 11 11 10 10 11 12 12 11 11 11 10 9 8 8 8 8 9 9 9 8 9 10 10 11 11 10 10 9 10 10 11 11 11 11 10 9 8 8 7 6 5 5 4 4 4 5 7 8 7 6 5 4 3 3 3 3 4 4 4 5 6
12 12 11 11 12 12 13 13 13 12 12 12 12 12 11 11 11 11 10 9 9 9 9 9 10 11 11 12 12 11 11 11 11 10 10 9 10 10 10 11 11 11 10 9 9 9 8 6 6 6 5 5 5 6 7 8 8 7 6 5 4 4 4 4 5 5 5 5 6
11 10 10 10 11 12 13 13 14 14 14 13 13 12 11 11 11 10 9 8 9 10 10 10 10 11 12 12 12 11 10 9 9 9 9 9 10 11 11 10 11 10 10 9 9 9 9 7 7 7 6 6 6 7 7 7 7 7 6 4 4 5 5 5 6 5 5 5 6
11 10 9 10 11 12 12 13 13 13 12 12 12 11 11 11 10 10 9 9 11 12 12 11 11 11 11 10 10 9 8 8 7 8 9 9 10 11 11 10 11 10 10 9 8 7 7 6 7 7 7 6 6 6 7 7 7 6 6 5 5 5 6 6 6 5 5 5 6
11 10 10 10 11 11 12 12 11 11 11 11 11 11 11 11 11 11 12 13 14 13 12 12 11 11 10 8 8 8 7 7 8 8 9 10 10 10 10 10 10 10 9 9 7 6 6 6 7 7 7 7 6 6 6 7 7 6 6 6 6 6 6 6 6 6 5 6 6
11 10 10 10 11 11 12 11 10 10 11 12 12 11 11 11 12 12 13 14 13 11 10 10 10 9 9 7 7 7 7 7 8 8 9 9 9 10 10 9 9 9 8 8 7 6 6 7 7 8 8 7 6 6 6 7 6 6 6 6 7 7 7 7 7 7 7 7 7
12 11 11 11 11 12 12 12 10 11 11 12 12 11 11 11 11 11 11 12 11 10 9 8 8 8 8 7 7 7 7 7 8 9 9 9 9 9 9 9 9 9 8 7 7 7 7 7 8 8 8 8 7 7 6 6 6 6 6 6 7 7 7 7 7 7 7 8 8
13 12 12 12 12 12 12 12 10 10 11 12 11 10 10 9 10 10 10 10 10 9 8 7 7 7 8 8 8 8 8 8 9 10 10 10 10 10 10 9 9 9 8 8 7 8 8 8 8 7 7 7 6 6 6 5 5 5 5 5 5 6 6 7 7 7 7 8 8
13 13 13 13 13 13 12 11 10 10 10 10 10 9 9 8 8 9 9 9 8 7 7 7 7 7 7 8 8 8 9 9 10 10 10 10 10 10 10 10 9 9 8 8 8 8 7 7 6 6 5 5 5 5 5 5 4 4 4 4 4 5 5 6 6 7 7 7 8
14 14 14 14 15 14 13 12 10 10 10 10 10 9 9 8 8 8 9 8 7 7 7 8 7 7 7 7 8 8 9 9 10 10 10 10 10 9 9 9 8 8 8 7 7 7 7 6 6 5 5 4 4 4 4 4 4 4 4 4 4 4 5 5 6 6 7 7 7
14 14 14 14 15 14 13 12 11 10 10 10 9 9 8 7 7 8 8 8 8 8 8 8 8 8 8 8 8 8 8 9 9 9 9 8 8 8 8 8 7 7 6 6 6 6 6 6 5 5 4 4 3 3 3 3 3 3 4 4 4 4 5 5 5 5 6 6 7
13 13 13 13 13 13 12 12 11 10 9 9 8 8 8 8 8 8 8 8 8 8 9 9 9 9 9 9 9 8 8 8 8 8 7 7 6 6 6 6 6 6 5 5 5 5 5 5 5 4 4 3 3 3 3 3 3 3 4 4 4 4 5 5 5 5 5 6 7
12 12 12 11 11 11 11 10 10 9 8 8 8 8 8 8 8 9 9 8 8 9 9 9 9 9 9 9 8 8 7 6 6 6 6 5 5 5 5 5 5 5 4 4 4 4 4 4 4 4 3 3 3 3 3 3 3 3 3 4 4 4 5 5 5 5 6 6 6
11 11 10 10 10 10 10 9 9 9 9 9 9 9 9 9 9 9 9 8 8 8 9 9 9 8 8 8 7 7 6 5 5 4 4 4 4 4 4 3 3 3 4 4 4 4 4 4 4 3 3 3 3 3 3 3 3 3 4 4 4 4 5 5 5 5 5 6 6
10 10 9 9 10 10 9 9 9 9 9 10 9 9 9 9 9 9 8 8 8 8 8 8 7 7 7 6 6 5 4 4 4 3 3 3 3 3 3 3 3 3 3 4 4 4 4 4 4 3 3 3 3 3 3 3 3 4 4 4 4 4 4 4 4 5 5 5 5
9 9 9 9 10 10 10 10 10 10 10 10 9 9 9 8 8 7 7 7 7 7 7 6 5 5 5 4 4 4 4 4 4 3 3 3 3 3 2 2 2 3 3 4 4 4 4 3 3 3 3 3 3 3 3 3 3 4 4 5 5 5 4 4 4 4 5 5 5
9 9 9 8 9 10 10 10 10 10 10 9 8 8 7 7 6 6 6 6 6 6 5 4 4 4 4 3 3 3 4 4 4 4 4 3 3 3 2 2 2 3 3 3 4 4 4 3 3 2 2 2 2 3 3 3 3 4 5 6 6 6 6 6 5 5 5 5 5
9 9 9 9 9 9 9 9 9 9 8 7 7 6 6 6 5 5 6 6 6 5 5 4 4 4 4 4 4 4 4 5 5 5 5 5 4 4 4 3 3 3 3 4 6 8 8 7 5 4 3 2 3 3 3 3 3 4 5 5 6 6 7 6 6 6 6 6 6
9 9 9 8 8 8 8 8 8 7 6 6 6 6 6 5 5 5 5 6 5 5 5 4 4 5 5 4 4 5 5 5 5 5 5 6 6 6 5 4 4 4 4 6 8 10 10 9 8 7 5 3 3 3 3 3 3 4 4 4 5 5 6 6 6 6 6 6 6
8 7 7 7 7 7 7 6 6 6 6 6 6 5 5 4 4 5 5 5 4 4 4 4 4 5 5 4 5 5 5 5 5 5 5 6 6 6 6 5 4 4 5 8 10 10 10 9 9 8 7 5 3 2 3 3 3 3 4 4 4 4 5 6 7 7 8 8 7
6 6 6 6 7 7 6 6 6 6 6 5 5 4 4 4 5 5 5 4 4 4 4 4 4 3 3 4 5 5 5 5 5 5 5 5 5 6 5 5 5 5 7 10 10 10 10 9 9 9 8 7 4 2 2 3 3 3 3 3 3 4 4 5 6 7 8 9 9
5 5 5 6 6 6 6 6 6 5 5 4 4 4 4 5 5 5 5 5 5 5 5 4 3 3 4 5 5 5 5 5 5 5 5 5 5 5 5 5 5 6 8 11 10 10 10 10 9 9 9 9 6 3 2 2 3 3 3 3 3 4 5 6 7 8 8 9 9
4 4 5 6 6 6 5 5 5 4 3 3 4 4 5 5 6 6 6 6 5 5 4 3 3 4 5 5 4 4 5 5 4 4 4 5 5 6 6 6 6 6 8 11 11 11 11 11 10 10 10 10 8 5 3 3 3 3 3 4 5 6 7 8 9 9 9 9 10
3 4 5 5 6 5 5 4 4 3 3 4 5 6 6 7 7 6 5 5 4 4 3 3 4 4 4 3 3 4 4 4 4 4 4 5 6 6 6 6 6 7 9 11 12 12 12 12 12 12 11 11 9 7 5 5 4 4 5 5 6 7 8 9 9 10 10 11 11
3 4 4 5 5 5 4 4 4 4 5 6 6 7 7 7 5 5 4 3 3 3 3 3 4 4 4 4 4 4 4 5 5 5 6 6 7 7 7 7 7 8 10 13 13 13 13 13 13 13 12 12 9 8 7 6 6 6 6 7 8 9 9 9 9 10 11 11 11
4 5 5 6 6 5 5 5 5 6 6 6 6 6 6 5 4 3 3 3 2 2 3 3 4 4 5 5 5 5 5 6 6 7 8 8 8 8 8 8 7 8 11 14 14 14 14 14 14 13 13 13 10 8 7 6 6 6 7 7 8 9 9 10 10 10 11 11 11
5 6 6 6 6 6 5 6 6 6 6 5 5 4 4 3 3 3 3 3 2 2 2 2 3 3 4 4 5 5 6 7 7 8 8 8 8 9 9 8 7 8 12 14 15 15 15 14 14 14 13 13 9 7 6 7 7 7 7 8 8 9 9 9 10 10 11 11 11
6 6 6 6 5 5 5 5 5 5 5 4 4 4 3 3 3 3 3 3 3 2 2 2 3 3 3 3 4 5 6 7 8 8 8 8 8 9 9 9 8 10 13 15 15 15 15 15 14 14 13 12 8 6 6 7 7 8 8 9 9 9 10 10 10 10 10 11 11
5 5 5 5 5 5 4 4 4 4 3 3 3 3 3 3 3 3 3 3 3 3 3 3 3 3 4 4 4 5 6 7 7 8 8 8 8 9 9 10 10 11 13 15 15 15 15 15 15 14 13 10 7 6 6 7 7 8 9 9 9 9 9 9 9 10 10 10 10
4 4 4 4 4 4 3 3 3 3 3 3 3 3 3 3 3 3 3 3 3 4 4 4 4 4 5 5 5 5 5 6 7 8 8 8 8 9 9 10 10 11 12 14 15 15 15 15 15 14 13 9 7 6 7 7 7 7 8 8 8 8 8 8 9 10 10 10 11
3 2 2 2 3 3 3 2 2 3 3 3 3 3 2 2 3 3 3 3 3 4 4 4 5 5 5 6 6 7 7 6 7 8 8 9 8 9 9 10 11 11 12 14 15 16 16 16 15 15 13 9 8 7 7 7 7 7 7 7 7 8 8 8 7 8 9 11 12
2 2 2 2 3 3 3 3 3 3 3 3 3 3 2 2 2 2 3 2 2 3 4 5 5 6 6 7 7 7 7 7 7 7 8 8 9 9 10 11 11 11 12 14 16 17 17 16 16 15 14 11 9 7 6 6 7 7 7 7 7 8 8 8 7 8 8 10 13
3 3 3 4 4 4 3 3 3 2 2 2 3 3 3 3 3 3 3 2 2 3 4 5 6 7 7 7 8 8 8 8 7 7 8 8 9 10 11 11 11 12 13 15 16 17 17 17 16 16 14 11 8 7 6 6 7 7 7 7 7 7 8 8 8 8 8 9 11
4 4 4 4 3 2 1 2 2 2 2 3 3 3 3 3 3 3 3 2 3 3 4 5 6 7 7 7 7 8 9 10 9 8 8 8 9 10 11 11 11 12 12 14 16 17 18 17 17 16 15 11 9 7 6 6 7 8 8 7 7 7 7 8 7 7 8 8 9
Wind_Direction
58 62 70 79 78 73 66 63 57 53 49 46 41 41 45 51 48 44 43 46 53 56 57 57 59 62 65 68 73 76 77 74 72 71 72 75 80 82 83 82 81 82 84 86 95 104 112 116 111 104 99 100 111 121 133 145 148 144 138 131 118 95 59 17 352 335 325 317 315
57 59 62 67 75 80 80 75 68 66 65 64 62 62 63 65 64 61 59 57 56 56 55 56 58 60 63 65 69 73 76 76 73 70 69 69 72 75 76 74 69 66 64 63 66 72 81 85 87 86 84 84 93 103 110 110 113 111 107 100 84 65 43 19 351 325 307 295 288
61 63 66 70 74 76 77 76 73 72 71 70 66 64 63 64 64 64 62 60 56 53 51 52 54 57 58 60 61 65 68 70 70 67 65 64 66 68 70 70 66 62 58 55 51 50 51 56 64 67 68 67 67 66 63 57 64 74 79 73 65 55 41 17 338 314 295 277 270
62 62 64 66 71 73 74 75 75 75 73 71 69 66 64 63 65 65 65 62 57 53 49 49 51 51 51 52 54 56 59 63 65 65 65 64 65 65 66 66 63 59 55 51 48 47 47 50 55 58 59 62 60 53 44 34 43 52 60 63 65 63 53 13 309 288 276 267 263
63 62 64 67 69 70 70 71 74 73 71 69 69 67 65 64 66 67 66 63 57 53 50 50 52 51 51 52 55 58 60 62 63 64 66 66 66 65 65 63 62 59 55 52 50 50 51 55 59 58 57 60 60 51 38 28 39 45 49 49 48 42 32 10 311 275 263 261 261
68 66 65 67 69 70 70 70 72 71 69 66 66 66 65 64 66 68 69 68 65 62 59 58 59 61 63 65 67 68 68 67 65 65 64 64 63 63 63 63 62 60 58 55 56 57 60 65 70 68 65 66 66 56 44 37 45 49 49 43 34 27 19 12 357 338 321 317 313
72 70 68 67 69 71 72 72 72 72 70 67 66 66 66 66 68 70 72 74 71 67 64 62 62 65 69 71 69 67 65 62 60 58 57 58 59 60 62 63 63 61 60 58 60 62 65 71 75 73 69 66 62 48 41 40 46 51 53 47 38 29 20 14 6 358 351 347 341
73 71 71 71 72 73 74 74 74 74 72 70 69 68 68 69 71 72 73 72 70 67 65 62 59 59 59 60 57 55 54 52 51 50 50 52 54 57 60 61 61 59 58 56 56 58 60 65 65 61 56 54 51 42 37 37 42 47 48 44 37 29 22 16 8 0 353 347 342
73 73 73 74 75 76 76 74 74 75 75 73 71 70 69 69 70 71 71 70 69 67 65 61 56 54 53 53 52 50 49 49 49 48 48 49 50 52 53 55 54 53 51 49 49 51 53 57 55 52 49 48 45 40 36 35 40 42 43 38 30 23 19 17 10 3 356 350 342
78 78 78 78 77 78 77 75 74 73 74 73 71 69 68 67 68 68 70 72 70 65 61 58 55 54 53 52 52 51 51 52 53 52 51 50 50 50 51 51 50 49 47 43 44 46 49 53 53 52 49 49 46 42 37 35 38 39 38 33 23 18 16 16 12 7 1 356 347
82 81 79 79 78 78 77 75 73 71 71 71 69 67 65 64 64 65 67 68 65 61 57 55 55 55 55 55 55 55 56 57 58 58 56 53 52 51 51 51 50 49 47 43 42 44 47 51 52 51 49 47 45 42 37 34 36 35 33 25 18 15 15 15 11 6 2 356 348
81 79 78 78 78 77 76 75 72 70 69 69 67 64 62 59 58 60 62 62 62 60 57 54 55 57 58 59 59 60 61 61 61 61 59 55 54 53 53 52 51 50 49 46 44 46 49 50 49 47 45 42 41 37 33 30 31 30 24 16 11 10 10 9 6 2 357 352 345
78 77 76 76 76 76 76 74 72 69 66 64 62 60 58 55 55 56 59 61 62 62 60 57 58 59 60 61 61 61 61 61 61 60 59 56 54 53 52 51 50 50 49 47 45 45 47 47 45 42 39 35 33 29 27 26 26 23 18 10 6 4 2 1 358 355 350 345 340
70 70 70 71 71 72 72 70 68 65 62 60 58 58 57 56 54 56 60 63 64 65 64 62 60 60 60 60 61 61 60 61 60 60 58 55 53 51 49 48 45 44 43 42 40 40 40 39 37 35 32 28 25 21 20 21 21 18 13 8 2 358 355 352 351 348 344 340 335
65 64 65 66 67 67 67 66 65 62 60 59 57 57 58 57 56 57 61 64 65 66 65 65 64 62 60 60 60 59 59 58 57 56 55 52 48 46 44 41 38 36 34 32 32 33 33 32 30 28 25 21 16 13 11 12 13 10 7 2 355 350 346 344 342 340 338 335 330
62 61 61 62 63 64 64 63 62 61 59 58 56 56 58 58 57 58 61 63 65 65 65 64 64 62 59 57 56 56 55 54 53 51 49 46 42 39 37 35 32 29 27 25 24 24 23 23 22 20 17 11 6 2 359 359 359 357 352 348 343 338 334 332 332 331 330 329 325
60 58 58 59 60 61 61 61 61 60 59 59 57 56 57 58 59 60 61 63 66 67 66 63 62 59 56 52 50 50 51 49 48 47 44 41 37 34 32 29 26 23 20 19 17 14 11 8 7 7 5 0 354 349 346 345 343 339 335 331 327 323 321 319 320 321 321 320 317
60 58 58 60 61 62 63 64 64 64 63 62 61 60 60 61 64 64 63 62 64 65 65 62 58 55 52 48 45 45 46 46 45 43 40 36 33 30 27 23 18 16 13 12 10 5 359 354 352 350 349 346 340 334 330 328 324 320 316 313 310 308 307 307 308 308 308 308 307
63 61 61 63 65 66 67 68 68 68 68 67 67 66 65 64 66 66 63 58 57 58 59 58 53 50 47 45 43 43 43 44 41 39 35 31 28 24 21 15 10 7 5 3 357 351 344 338 335 332 329 325 320 315 311 308 303 299 298 296 294 293 293 294 294 294 293 293 294
67 66 66 67 69 70 71 71 71 72 71 70 69 67 65 62 61 60 58 53 50 51 53 53 50 47 43 41 41 40 38 38 38 35 31 26 23 19 13 6 0 357 354 350 343 335 327 320 316 312 308 303 300 296 293 290 286 282 281 282 280 280 280 281 283 283 283 283 284
68 68 69 69 71 71 71 71 71 70 69 66 63 61 59 56 54 52 50 47 45 46 48 49 48 45 42 39 39 37 34 33 34 31 27 23 20 13 5 356 351 346 342 338 328 318 309 302 297 292 286 280 276 274 273 273 271 269 267 269 270 271 271 273 275 277 278 279 280
68 67 67 67 68 68 67 65 64 63 61 58 56 54 52 50 48 46 43 41 43 45 46 46 46 44 41 39 38 35 33 31 32 30 26 22 16 8 359 352 343 338 333 327 315 302 291 281 273 264 256 252 249 250 254 260 267 270 272 275 276 276 276 275 278 279 281 282 283
65 63 62 61 60 60 60 58 57 56 54 52 50 48 48 47 45 43 41 41 44 45 45 44 44 43 42 39 38 36 35 33 32 29 26 22 12 2 353 344 339 335 330 319 304 291 279 268 255 241 234 236 244 250 257 263 279 290 298 302 303 302 301 300 299 298 296 295 294
59 58 56 56 54 54 54 54 54 53 51 49 47 46 46 46 45 45 46 46 46 45 43 41 42 43 43 40 39 39 38 36 31 26 21 19 13 4 357 350 349 342 331 317 314 313 311 306 291 272 258 260 271 279 286 290 302 310 315 317 317 317 316 316 315 313 310 307 305
56 55 54 53 53 53 53 53 54 53 52 49 48 47 47 46 46 48 50 50 48 45 43 40 38 40 42 39 37 37 37 34 28 22 16 11 9 6 3 1 357 349 337 325 330 333 334 333 329 325 319 312 309 308 309 309 310 311 313 312 313 313 314 313 312 311 308 305 303
57 56 55 54 56 56 56 56 56 56 54 51 50 49 48 46 47 49 51 50 46 43 40 38 35 34 34 34 29 28 28 27 23 17 12 7 3 2 1 359 355 348 337 331 333 334 334 332 330 328 325 320 315 310 307 305 299 297 296 295 297 300 302 304 304 303 300 297 294
61 61 60 59 61 60 59 58 58 57 54 52 51 50 48 46 47 49 49 47 43 40 38 36 31 28 28 28 24 22 19 16 14 11 8 4 359 357 354 351 348 340 331 329 329 329 329 328 327 325 322 316 306 297 294 294 287 281 278 277 279 282 287 293 297 299 298 296 292
65 66 66 65 64 62 59 57 56 53 51 49 49 48 48 47 47 47 46 43 39 36 33 30 25 21 20 21 18 14 10 7 5 4 2 359 354 350 346 341 337 330 325 324 325 325 324 323 323 322 320 317 309 293 284 285 282 277 273 273 276 279 284 289 295 297 298 298 295
67 69 69 68 66 62 57 53 52 50 48 47 47 48 48 49 46 43 39 35 32 30 26 19 13 13 15 13 7 2 359 358 356 354 352 349 345 340 335 330 324 320 318 319 320 321 322 322 322 321 320 319 316 308 292 282 283 284 284 286 290 292 294 295 297 297 297 297 297
65 71 73 73 69 63 57 53 51 49 47 47 46 46 45 43 38 34 29 26 24 22 17 10 6 8 7 2 355 350 348 346 343 342 341 338 336 332 327 323 317 314 315 318 320 322 323 323 323 322 321 320 318 314 305 296 295 297 299 301 300 299 298 297 296 295 295 295 296
61 70 74 74 67 61 55 49 46 43 41 40 39 38 36 34 29 25 20 15 9 3 0 4 3 359 353 344 339 335 332 329 329 331 332 332 331 328 324 320 316 314 316 321 324 325 325 325 324 322 321 319 317 313 309 306 305 302 301 298 297 296 295 293 292 291 291 291 292
51 58 62 62 56 50 43 36 32 32 32 32 32 31 29 25 20 13 4 354 346 343 345 351 351 346 339 334 330 328 326 326 329 331 333 334 332 329 326 325 322 320 321 324 325 325 324 323 321 319 317 315 312 309 306 304 301 296 292 287 286 286 286 286 286 286 286 285 286
36 40 44 46 41 34 28 24 23 23 24 26 25 23 18 11 0 350 341 334 330 329 332 335 338 337 335 334 333 332 332 332 333 333 334 335 333 331 328 328 325 323 322 323 323 321 320 318 316 313 311 309 306 304 300 297 292 288 284 280 279 278 277 276 276 278 280 281 281
25 28 31 32 27 21 17 14 14 15 16 16 12 7 360 350 342 337 333 327 322 316 317 321 326 327 327 328 331 332 332 333 333 333 333 332 331 329 326 323 319 317 317 317 316 315 313 311 309 307 305 304 301 298 293 289 284 280 278 276 275 273 270 269 269 272 275 279 280
19 20 20 17 13 9 6 3 3 3 2 359 350 342 335 331 329 327 325 325 328 327 321 318 319 319 320 322 325 327 328 328 327 327 326 325 324 321 317 312 308 307 309 309 309 308 307 305 304 302 301 300 297 291 286 283 279 276 274 274 273 271 270 270 271 273 276 279 280
16 15 11 4 358 354 350 348 346 344 340 333 327 323 322 320 316 313 315 324 333 334 329 323 324 324 325 324 322 321 321 318 317 316 315 315 314 310 307 303 300 301 302 303 304 303 302 301 300 300 299 298 293 287 283 280 277 275 274 273 272 271 271 275 278 280 281 280 279
8 7 360 347 338 332 327 324 319 311 303 298 297 301 307 311 307 305 311 331 338 335 330 325 325 322 318 315 311 307 305 303 304 304 303 303 303 301 299 297 296 296 297 299 300 300 300 299 299 299 298 295 290 284 281 278 277 276 275 274 274 275 277 280 282 283 282 281 280
345 343 332 317 305 296 287 277 266 264 267 275 276 281 291 303 305 306 316 338 337 331 324 320 316 311 306 303 300 297 293 289 291 292 294 295 294 293 293 293 293 293 294 296 297 298 298 298 298 298 297 293 289 285 281 280 278 278 277 277 279 280 282 283 282 282 281 280 280
290 277 265 262 258 252 245 238 238 245 261 281 292 300 308 314 308 307 312 327 320 312 308 306 302 299 298 299 299 296 293 287 285 286 287 289 288 289 290 291 292 292 293 295 296 297 298 298 297 296 294 291 287 284 281 278 278 277 277 278 281 283 283 282 281 280 278 278 280
248 237 230 228 229 230 232 239 249 262 283 308 320 320 318 315 304 301 303 306 294 289 290 292 293 294 296 300 299 297 295 292 287 284 283 284 286 288 290 291 291 292 293 294 295 295 296 295 295 293 292 289 284 280 277 276 276 277 277 279 282 284 284 281 279 277 277 276 278
228 223 221 222 222 228 259 311 317 319 322 328 321 314 307 305 299 299 301 300 292 289 289 291 293 294 296 299 298 297 296 295 291 287 284 285 286 288 290 290 290 290 291 291 291 292 292 292 291 290 289 286 282 278 276 276 278 280 280 281 281 282 282 281 278 276 275 276 277